Theta_e
331 332 332 332 331 329 328 326 323 323 323 323 324 322 318 317 316 313 310 309 307 307 306 304 303 302 303 305 304 303 303 303 304 305 307 307 307 307 308 312 315 318 321 326 330 332 329 328 328 328 328 326 325 324 325 325 325 324 323 323 323 326 323 321 319 319 318 319 319 319 319 320 321 321 321 322 322 322 322 324 324 325 325 326 328
329 327 330 328 325 324 323 322 320 320 321 323 323 322 321 316 314 313 310 310 309 307 306 307 304 303 302 303 303 302 302 302 303 303 305 306 306 306 305 308 312 315 318 321 326 329 331 331 328 327 327 327 326 325 325 326 325 324 322 322 322 324 323 321 320 318 317 317 318 318 318 319 319 320 320 320 320 321 321 321 322 323 323 324 325
326 326 327 328 325 323 323 322 320 318 321 323 318 320 319 318 316 315 312 309 310 305 305 307 304 303 301 302 302 301 301 301 301 302 303 305 305 305 306 304 306 310 314 318 322 325 328 330 329 328 328 328 328 326 326 325 326 325 324 323 322 324 323 322 319 319 318 317 317 318 318 317 318 318 319 320 319 319 320 319 320 321 322 321 322
329 325 324 325 325 324 323 322 322 320 320 320 317 316 317 315 313 312 309 308 308 305 303 305 305 302 301 302 301 301 301 300 301 301 302 304 304 305 306 305 303 306 310 315 319 321 324 327 328 328 329 328 329 328 326 325 324 326 326 324 322 324 325 323 319 319 319 318 317 317 317 317 317 317 318 319 318 318 319 319 319 319 320 320 320
323 324 324 325 324 322 321 319 319 319 316 317 315 313 312 312 310 308 308 308 307 305 303 303 304 303 301 301 300 302 300 300 301 300 302 303 304 304 305 305 306 305 307 309 313 317 320 323 326 328 328 329 329 328 329 326 325 326 325 324 323 323 324 324 321 321 320 319 318 318 317 317 317 317 317 318 318 318 318 318 318 318 319 319 319
321 321 320 319 318 318 317 317 318 316 315 315 316 314 313 313 310 311 309 310 310 308 306 308 306 302 302 301 300 300 299 300 300 300 300 302 302 303 304 305 306 307 308 306 308 310 315 319 322 325 327 328 329 329 329 328 327 327 327 326 325 325 325 325 323 323 322 319 318 318 317 317 317 317 317 317 318 318 318 318 317 318 318 318 318
318 319 318 318 317 316 315 315 314 314 313 313 313 312 312 311 308 312 309 309 309 308 307 308 307 307 305 301 301 300 299 300 299 300 300 301 301 302 303 304 305 306 307 308 305 306 308 313 317 321 323 325 326 328 328 329 328 327 326 328 329 329 325 325 324 325 321 320 319 318 318 318 317 317 317 316 317 317 317 317 317 317 317 317 317
314 315 314 314 314 313 312 312 312 313 312 312 312 311 311 311 308 309 310 311 308 309 304 305 303 303 302 300 299 299 299 299 299 299 299 298 300 301 302 303 304 305 305 308 308 307 304 308 313 316 317 318 321 323 326 327 327 327 327 328 327 324 323 325 323 322 321 320 318 319 319 318 317 317 317 316 316 317 317 316 317 317 316 316 316
310 311 310 310 311 311 311 311 312 312 311 311 310 309 310 309 306 304 306 307 305 305 305 304 303 301 300 300 299 298 299 299 299 298 298 298 299 299 300 302 302 302 306 306 307 307 305 304 308 310 310 312 316 320 322 324 325 326 326 327 327 324 324 324 322 322 321 320 320 319 318 317 317 317 316 316 316 316 317 316 316 316 316 315 315
306 307 307 307 308 309 309 310 311 311 311 310 308 308 307 308 307 302 302 304 303 302 302 301 301 301 300 300 299 298 298 298 298 297 298 299 299 299 300 301 302 303 304 305 305 305 306 305 304 305 304 308 313 317 319 320 322 324 327 328 329 327 324 323 322 321 320 320 319 318 317 317 317 316 316 315 315 315 315 316 315 315 315 315 315
301 303 304 304 304 305 306 307 308 308 308 307 306 306 307 307 307 305 302 302 302 300 298 297 299 300 300 300 298 298 298 297 297 297 297 299 298 298 298 299 299 301 302 303 303 304 304 305 306 306 308 304 309 313 315 317 317 318 321 323 326 328 328 323 322 322 321 320 319 318 318 318 317 316 315 315 315 315 315 315 315 315 315 315 315
297 299 300 301 301 302 303 305 305 305 303 302 302 302 302 304 302 303 303 301 299 297 297 296 298 299 300 300 298 298 298 297 297 297 297 297 297 297 297 298 297 299 299 300 301 302 302 303 302 304 305 305 304 306 309 311 312 315 317 319 322 324 327 328 324 322 321 320 319 319 318 318 317 317 316 315 315 315 315 314 315 315 314 314 314
295 296 296 297 298 298 299 300 302 302 301 301 303 302 302 302 302 300 300 300 298 296 296 296 297 301 300 301 300 299 296 296 296 296 296 296 296 296 297 296 297 297 298 298 299 300 301 301 302 302 303 304 304 302 304 306 307 311 315 316 318 320 322 326 326 323 321 321 320 319 319 318 318 317 316 315 315 315 315 314 315 315 315 315 314
293 294 294 295 295 295 296 297 298 298 298 299 299 298 299 300 301 301 300 299 298 296 297 299 299 294 296 298 298 299 299 295 295 297 297 297 296 296 296 296 296 297 296 296 297 297 298 299 300 300 302 302 303 303 304 304 305 307 311 314 315 317 318 321 324 324 322 322 321 320 320 319 319 318 316 316 316 316 315 314 315 315 315 315 315
290 291 291 292 293 293 293 294 295 296 296 296 296 296 297 298 298 297 298 300 299 298 297 297 295 297 297 295 295 296 301 299 296 297 298 298 295 295 295 296 296 296 295 295 296 297 297 297 298 299 300 300 301 302 302 300 301 300 303 307 310 314 315 316 318 321 325 325 323 321 320 319 318 318 318 317 317 316 315 315 315 315 315 315 314
288 288 289 289 290 290 291 291 292 293 294 293 293 294 295 295 296 296 298 296 296 296 297 296 295 294 294 294 294 291 294 295 293 296 297 293 293 296 295 295 295 295 295 296 297 296 296 296 296 297 297 298 298 299 300 300 299 297 296 299 301 307 311 314 315 316 319 322 324 322 320 320 319 319 319 319 318 317 316 316 315 315 315 315 314
287 287 287 287 288 288 289 289 289 290 291 291 291 292 293 294 294 295 295 295 295 295 296 296 296 296 293 292 293 293 293 292 292 296 293 298 298 297 295 295 296 295 295 296 296 296 295 295 296 296 296 296 296 296 297 298 298 298 297 294 296 301 305 310 312 313 314 316 319 321 322 322 320 320 319 319 319 318 317 317 316 315 315 315 314
286 287 287 287 287 287 287 287 288 288 289 289 290 290 291 291 292 293 293 294 294 294 293 295 296 296 296 294 292 289 288 290 291 291 296 297 296 294 295 296 294 295 294 295 296 296 295 295 296 296 296 296 295 295 296 296 296 296 297 298 299 301 303 306 309 311 313 313 314 316 319 321 322 322 322 323 320 319 318 317 316 316 315 315 315
286 286 286 286 286 286 286 287 287 287 287 287 287 288 289 290 291 291 291 292 293 291 291 292 295 295 295 295 295 294 292 290 289 289 289 293 294 296 297 298 295 294 295 295 295 295 296 296 296 296 296 296 295 295 295 295 295 295 296 297 300 303 304 305 306 308 310 312 312 313 315 317 319 320 320 320 320 319 318 317 317 316 315 315 315
285 285 285 286 286 285 286 286 286 286 286 286 286 287 288 288 289 289 290 290 291 290 290 291 290 291 293 293 293 294 294 293 293 289 288 286 289 296 294 295 295 296 295 295 295 295 295 296 296 296 296 296 295 295 295 296 295 295 295 296 300 303 304 305 305 305 307 308 311 311 313 314 316 317 318 319 320 320 319 318 317 317 316 315 315
285 285 285 285 285 285 285 285 285 285 285 285 285 286 286 286 286 287 287 287 288 289 289 288 289 289 290 290 292 292 292 293 292 291 288 287 288 290 290 293 294 295 295 295 295 295 295 295 295 295 295 295 296 295 295 295 295 295 295 296 299 302 305 306 305 306 306 306 307 309 311 312 312 314 315 317 318 321 320 319 319 319 317 316 315
284 284 284 284 284 284 284 284 284 284 284 284 284 284 285 285 285 286 286 286 286 287 287 287 288 288 289 289 288 289 290 290 291 290 290 290 287 287 289 288 287 291 294 295 296 296 296 295 294 295 294 295 295 295 295 295 295 295 295 295 297 299 301 301 303 304 305 306 307 307 308 310 311 312 313 315 315 316 321 321 321 320 319 317 316
284 284 284 284 284 284 284 284 284 284 284 283 283 283 284 284 284 285 285 284 284 285 286 286 287 286 287 287 287 287 287 286 287 288 288 287 287 287 288 289 288 287 291 294 294 294 295 295 294 294 295 295 295 295 294 295 293 293 293 294 296 298 299 301 302 302 303 304 305 306 307 308 309 310 311 313 314 315 316 319 321 321 320 317 316
283 283 283 283 283 283 283 283 283 283 283 283 283 283 283 283 283 283 283 284 284 284 284 284 285 285 286 286 286 287 287 287 287 288 287 287 287 286 286 287 287 288 290 291 292 293 294 294 295 295 295 295 295 295 294 294 294 292 292 293 295 298 300 303 304 304 304 305 305 306 306 306 307 308 310 312 313 313 313 314 317 320 320 319 317
282 282 282 283 283 282 282 282 282 282 282 282 282 283 283 282 282 282 282 282 282 283 282 283 283 283 283 285 285 286 285 287 287 287 287 287 286 284 286 288 285 286 288 288 287 290 292 293 294 295 294 294 295 294 295 294 294 293 292 293 294 295 296 298 299 300 301 301 303 305 306 306 306 307 308 310 312 313 313 312 313 317 321 320 318
281 281 282 282 282 282 282 282 282 282 282 282 282 282 282 281 282 281 281 282 282 282 282 282 282 283 283 282 283 284 284 285 285 286 286 285 284 284 284 285 286 284 287 287 288 286 289 289 291 292 293 293 294 294 294 294 293 292 291 292 293 294 295 296 298 299 301 301 302 302 303 304 306 306 306 309 311 312 312 313 313 314 317 320 319
281 281 282 282 282 282 282 282 282 282 282 282 282 281 282 281 281 281 281 282 281 281 281 281 281 281 282 282 282 282 283 283 284 284 285 285 284 284 283 281 282 284 283 285 286 286 287 289 291 291 291 292 292 293 294 294 292 291 290 293 293 292 293 295 298 299 300 301 301 302 302 303 303 304 305 306 308 310 312 312 313 314 315 320 319
281 281 281 281 280 280 281 280 281 281 281 281 280 280 281 280 280 280 280 281 280 280 280 280 280 281 281 281 281 281 282 282 283 283 284 284 284 284 284 283 281 278 282 282 284 284 288 288 290 290 290 290 291 291 291 290 292 291 290 293 293 293 293 294 296 298 299 299 300 301 301 302 303 303 304 304 305 306 308 309 309 311 313 315 316
280 280 279 280 280 279 279 279 279 279 279 279 279 279 279 279 279 279 279 280 280 280 280 280 280 280 280 280 280 280 281 282 282 282 282 283 283 284 284 283 282 280 279 279 281 282 285 289 285 289 288 289 289 290 290 291 291 291 293 293 293 293 293 293 295 297 298 299 300 300 300 301 302 302 303 304 304 304 306 307 307 309 312 314 316
279 279 279 278 279 279 278 278 278 278 278 278 278 278 278 278 278 278 278 279 278 279 279 279 279 280 280 280 280 280 280 280 280 281 281 281 281 282 282 283 283 281 280 278 279 283 283 286 287 287 290 289 289 289 291 291 291 291 292 293 293 293 293 294 295 296 297 299 299 299 300 300 301 301 302 303 303 304 305 306 307 307 309 312 315
278 278 278 278 278 278 278 277 277 277 277 277 278 277 277 277 277 277 278 278 277 277 278 278 278 279 278 278 279 279 279 279 280 280 280 281 281 281 281 282 282 282 281 280 278 282 285 283 286 289 287 287 288 288 289 290 290 290 291 291 292 292 291 292 291 293 295 296 297 297 299 299 300 300 301 302 303 304 304 305 306 307 308 311 313
278 278 277 277 277 277 277 277 276 276 276 276 277 276 276 276 276 276 277 277 276 276 277 277 278 278 277 277 277 278 278 278 279 279 279 280 280 280 280 280 281 281 281 280 278 278 284 284 284 285 287 287 288 287 287 288 289 288 290 290 290 289 290 291 291 292 293 294 295 297 298 298 299 300 300 301 301 302 304 304 305 306 307 309 311
277 277 276 276 276 276 276 276 275 275 275 275 276 276 276 275 276 276 276 276 275 276 276 276 277 277 277 276 276 277 278 277 278 278 278 279 279 279 280 280 279 280 280 279 277 278 281 284 283 283 285 286 284 286 286 286 287 288 289 290 290 290 290 290 290 290 291 292 294 295 296 297 298 299 299 300 300 301 302 303 305 305 306 307 309
276 275 275 275 275 275 274 274 274 274 275 275 275 275 274 274 274 275 275 275 275 275 275 275 276 276 276 276 276 277 277 277 277 277 278 278 278 278 278 279 278 279 280 278 278 277 277 280 281 283 283 285 282 285 284 285 285 287 287 287 288 288 288 289 289 289 290 291 293 294 295 296 297 298 299 299 300 301 301 302 303 304 305 305 307
275 275 274 274 274 274 273 273 274 274 274 273 273 273 273 273 273 273 274 274 274 273 274 274 274 275 275 275 275 276 277 276 276 277 277 277 278 277 277 278 278 278 279 279 278 276 276 277 280 280 281 282 282 283 284 285 285 286 285 286 286 287 288 289 288 289 290 291 293 294 295 296 296 297 298 298 299 299 300 301 302 303 305 305 305
273 273 273 273 273 273 272 272 272 272 272 272 272 272 272 272 272 272 272 273 273 273 273 273 274 274 274 274 274 274 274 274 275 275 276 276 276 276 276 277 277 277 278 279 279 277 277 276 278 279 280 280 281 283 284 284 284 284 284 285 286 286 287 288 288 288 289 291 292 293 294 295 295 296 297 297 298 299 299 300 301 302 303 303 303
272 272 272 272 272 271 271 271 271 271 271 271 271 271 271 272 271 272 272 272 273 273 273 273 273 273 273 273 273 273 273 273 273 274 274 274 275 275 275 275 276 277 277 278 278 278 277 276 277 279 280 280 281 282 282 281 282 283 284 284 284 285 285 287 288 288 289 290 291 291 292 293 294 295 296 296 297 298 298 299 299 301 301 302 302
271 271 270 270 271 270 270 270 270 270 270 270 270 270 270 271 271 272 272 272 272 272 273 273 273 273 272 272 273 273 273 272 272 273 274 274 274 274 275 275 276 277 277 277 277 277 277 277 277 277 279 279 279 280 282 282 281 281 282 283 284 284 284 284 286 287 288 288 288 289 289 291 292 293 294 295 296 297 297 298 299 299 299 299 300
269 269 269 269 269 269 269 269 269 269 269 269 269 269 269 270 271 272 272 272 272 272 272 273 273 273 273 273 273 273 273 273 273 273 273 274 274 274 275 275 276 276 276 276 276 276 276 276 276 277 277 278 278 277 280 282 281 281 280 280 280 283 284 284 283 286 287 288 289 289 289 290 290 290 291 292 294 295 296 297 297 298 298 298 299
268 268 267 267 268 268 268 267 268 268 268 268 268 268 269 271 272 272 272 272 272 272 272 273 273 273 273 272 273 273 273 273 273 273 274 273 274 274 274 275 275 274 274 274 274 274 274 274 274 274 275 275 277 278 279 279 278 279 280 280 278 280 281 283 284 283 285 286 286 287 288 289 289 290 291 292 292 293 293 294 295 295 295 297 299
267 267 267 267 266 266 266 267 267 267 267 267 267 268 271 272 272 272 272 272 272 272 272 272 272 272 272 272 272 273 273 274 275 275 275 275 273 272 273 274 274 274 274 274 274 274 274 274 274 276 275 275 276 277 277 277 277 277 280 281 279 280 281 281 282 284 285 284 285 285 286 287 287 287 288 288 290 291 291 292 292 292 294 296 298
266 266 266 266 266 265 265 266 266 266 266 266 267 271 273 273 273 272 272 272 272 272 271 271 271 272 272 272 272 273 273 273 273 274 274 275 275 274 273 273 272 272 271 271 271 272 272 272 272 272 272 272 274 274 275 276 277 278 278 279 278 280 281 280 281 283 285 285 283 283 284 287 286 286 287 286 288 289 289 290 290 291 292 294 295
264 265 265 265 265 265 265 265 265 265 265 266 269 272 273 274 274 273 272 272 272 272 271 271 270 271 271 271 271 271 271 271 270 272 274 274 274 275 275 275 275 272 271 271 271 272 271 271 272 272 272 272 273 275 275 275 276 276 277 278 278 278 278 277 277 281 285 284 283 282 283 286 286 285 286 287 287 288 288 289 290 291 291 293 294
264 264 264 264 264 264 264 264 264 264 265 267 270 272 273 274 275 273 272 272 272 272 271 271 270 269 269 269 269 269 269 270 270 270 271 273 273 274 274 274 275 275 276 273 271 270 271 270 270 270 271 270 271 272 273 273 274 275 275 276 276 276 276 276 276 276 281 285 282 282 281 285 286 285 285 286 287 288 288 288 290 290 292 292 293
263 263 263 263 263 263 263 263 263 263 264 266 269 271 273 274 274 274 272 272 271 271 270 269 269 268 268 268 268 269 269 271 270 270 270 270 272 273 273 273 274 274 274 275 276 273 272 270 270 270 271 272 271 272 273 273 274 272 272 272 272 273 274 275 277 279 281 284 282 281 280 283 285 284 283 286 287 288 288 289 290 291 291 292 293
262 262 262 262 262 262 262 262 262 263 263 265 269 272 273 273 274 274 272 271 271 269 269 268 268 268 268 268 268 268 269 269 269 269 270 269 270 270 270 271 271 272 274 275 275 276 275 272 271 269 271 272 271 272 274 275 273 272 273 272 274 274 274 274 276 277 278 280 279 279 278 280 283 283 282 284 286 287 287 288 289 290 291 292 292
262 261 261 261 261 261 261 261 261 261 262 267 269 271 272 273 274 274 271 270 269 269 269 269 269 268 268 268 268 268 269 269 269 270 270 270 270 270 270 270 271 271 272 272 272 273 273 273 273 273 273 273 274 274 275 276 275 275 275 274 275 275 276 277 277 278 278 280 280 278 274 278 281 281 282 283 285 286 287 288 289 290 291 292 292
261 261 261 261 260 260 260 260 260 260 261 266 268 270 272 273 274 271 270 269 269 269 269 269 269 269 269 269 269 269 269 269 271 274 274 272 272 271 271 271 271 272 272 274 276 277 275 275 275 275 275 276 278 277 277 277 277 278 278 278 278 277 275 274 273 275 276 279 280 278 277 277 280 279 280 283 284 283 285 286 287 290 291 291 292
260 260 259 259 260 260 259 259 259 260 260 263 268 270 271 273 272 269 269 269 269 268 269 269 269 270 270 270 270 269 270 270 272 275 276 276 272 272 272 271 272 272 272 274 277 278 279 279 280 280 280 280 281 281 281 281 279 278 277 274 273 274 272 270 271 272 273 276 278 281 279 277 280 281 280 282 283 283 284 284 286 288 290 291 292
259 259 259 258 259 259 259 258 259 259 260 263 268 269 271 272 272 269 269 268 268 269 269 270 270 270 270 271 272 271 271 271 274 276 277 276 273 273 273 272 272 272 272 274 274 275 278 279 279 279 279 280 280 281 281 281 280 279 275 272 273 273 271 271 270 271 273 274 276 279 276 277 280 282 280 281 283 283 283 284 285 286 288 289 291
258 258 258 258 258 258 258 258 260 261 260 261 266 268 270 271 271 270 270 269 268 269 269 269 270 270 270 271 273 273 273 274 277 278 278 276 274 274 273 272 272 271 273 274 274 274 274 274 274 275 276 277 276 276 277 279 279 279 276 275 275 273 271 271 271 271 270 271 275 279 275 275 277 279 280 278 277 281 284 284 284 285 286 286 287
Wind_Speed
5 4 3 4 3 2 2 3 2 3 1 1 4 5 5 4 2 3 2 2 1 1 1 2 1 1 1 1 2 1 1 2 2 3 2 2 2 4 7 10 12 13 14 14 14 12 8 7 7 8 7 7 5 2 6 7 6 4 3 3 4 7 6 6 2 2 2 3 4 5 5 6 7 7 7 5 8 7 7 5 7 8 7 10 11
3 4 5 2 2 4 4 4 3 2 3 2 2 4 4 3 2 1 2 2 1 1 1 1 1 1 1 1 1 1 1 1 1 2 2 2 2 3 6 8 9 11 12 14 15 14 12 11 9 8 8 8 8 5 6 8 6 5 2 3 1 4 4 3 4 2 0 1 3 2 3 4 6 6 6 6 5 6 6 7 7 8 5 8 9
2 1 1 2 2 2 1 1 2 2 1 2 1 1 3 4 4 2 2 2 1 1 0 0 0 1 1 1 1 0 1 0 1 1 1 1 2 2 4 6 8 9 10 12 13 15 14 13 11 11 9 9 9 8 8 7 8 8 8 5 4 4 6 5 5 4 2 1 2 3 1 3 4 4 5 5 5 6 6 5 6 8 6 5 7
2 2 1 2 3 3 3 4 4 4 3 1 1 2 1 2 2 2 2 2 1 1 0 1 0 0 1 1 0 1 1 1 1 1 1 1 1 1 2 3 5 7 8 10 12 13 14 14 13 12 12 11 10 10 10 8 6 9 10 9 4 7 8 7 6 6 6 4 2 3 3 2 2 3 5 6 4 5 6 6 6 6 7 7 6
6 6 6 4 4 4 3 4 4 3 2 3 4 3 4 4 2 2 2 2 2 1 1 0 1 0 0 1 1 1 1 1 1 1 2 2 1 1 1 2 3 4 6 8 9 10 12 13 14 12 11 11 12 11 11 10 8 9 11 10 7 8 11 10 8 9 8 6 5 4 3 4 3 3 4 6 6 5 5 6 6 6 7 7 6
7 7 5 5 6 6 6 5 4 4 4 3 2 0 2 3 3 2 2 2 3 2 2 2 1 1 1 0 1 1 1 1 1 2 1 2 1 1 2 2 2 2 3 5 6 8 10 11 12 13 13 12 11 11 10 10 10 11 12 13 10 12 10 12 10 9 9 5 4 3 3 3 5 4 4 5 6 7 6 6 5 6 7 7 7
9 8 8 7 7 6 6 4 4 5 5 5 4 4 5 5 4 3 2 2 2 2 1 1 2 2 2 1 1 1 1 2 2 2 2 2 1 2 1 2 2 2 2 2 4 4 7 10 11 12 12 13 12 12 12 11 12 12 13 14 15 16 10 10 8 11 1 6 3 3 3 5 6 5 6 6 5 4 6 6 6 6 7 8 8
11 10 9 9 8 7 6 4 4 5 5 5 5 5 5 5 5 5 5 4 3 3 2 3 2 3 3 2 2 2 2 2 2 2 2 2 2 2 2 2 2 2 3 2 2 3 5 7 9 10 11 12 12 13 13 13 13 13 14 14 15 7 2 8 4 6 8 4 4 6 8 8 7 8 8 8 8 7 7 7 9 9 8 8 9
10 9 8 9 7 7 8 8 8 7 6 5 6 4 3 4 4 4 4 3 4 4 3 2 2 3 3 3 2 3 3 3 2 2 2 3 2 2 2 3 3 3 3 2 2 2 2 4 6 7 8 10 12 12 13 13 13 14 14 14 14 12 9 7 5 8 9 7 9 9 6 5 9 10 11 11 10 10 11 9 7 8 9 9 10
9 9 9 8 8 10 10 9 8 7 6 6 6 5 5 2 3 3 3 3 2 2 3 2 2 3 3 3 3 2 3 3 3 3 3 4 3 3 3 3 2 3 3 2 2 2 3 3 4 4 4 6 10 11 12 13 13 13 14 14 16 15 12 12 10 9 6 8 9 7 6 7 9 10 11 11 11 11 11 10 9 9 10 10 10
9 10 9 10 11 12 11 11 9 7 7 8 8 7 5 4 5 5 5 4 3 2 2 3 4 3 4 4 2 4 3 3 3 3 4 4 3 3 2 3 3 3 3 2 2 3 3 3 3 3 4 4 8 9 11 12 12 13 14 15 16 17 16 14 11 12 10 8 8 10 10 9 9 11 11 11 11 12 12 11 11 11 11 11 10
11 10 10 10 9 8 8 8 9 8 8 11 10 9 8 8 8 7 6 4 4 3 3 4 4 4 4 3 3 4 4 2 3 4 3 3 3 3 4 2 3 3 3 2 3 3 3 3 3 3 3 4 7 8 9 10 10 12 14 14 15 16 16 16 15 12 12 13 11 11 12 12 11 12 11 12 12 12 11 12 12 11 11 11 11
11 11 10 10 9 8 9 8 7 7 9 9 7 8 8 6 4 4 6 7 5 6 5 4 4 4 2 3 4 1 3 3 3 3 3 3 2 3 2 2 3 4 2 2 3 3 3 3 3 3 4 3 4 6 8 9 9 12 13 14 15 16 16 16 18 16 14 14 14 13 13 13 14 14 11 12 12 12 12 12 12 12 12 12 12
10 10 11 10 10 9 10 9 8 8 9 9 9 9 10 7 5 6 5 6 4 4 5 5 4 5 7 7 3 3 2 2 1 1 2 3 3 2 2 2 4 2 2 3 3 3 3 3 3 4 4 4 4 4 4 5 6 10 12 14 15 15 16 16 17 18 18 17 15 14 15 16 16 14 13 13 12 12 11 11 12 13 13 13 13
11 11 10 10 10 9 9 8 10 9 9 10 10 10 9 10 9 7 6 5 3 3 6 6 5 6 5 4 3 6 2 1 1 4 6 2 2 2 2 3 3 2 2 3 3 3 3 3 4 4 4 4 4 4 5 6 7 8 10 12 13 15 16 16 17 17 18 18 18 18 18 18 14 14 16 15 14 15 13 12 12 14 15 14 14
11 11 10 10 10 10 9 9 9 9 7 8 9 10 9 9 9 9 6 7 6 7 6 6 4 7 7 5 6 3 6 3 8 9 5 3 1 1 1 3 2 2 2 3 3 3 3 3 4 5 5 5 5 5 5 5 8 9 11 11 12 13 16 17 17 17 18 19 19 19 19 19 18 15 17 16 19 15 15 13 13 12 14 16 16
11 12 10 11 10 10 9 9 9 9 8 9 9 9 9 9 9 8 9 5 6 5 7 7 7 6 4 6 4 3 5 8 11 8 2 4 5 4 3 2 2 2 2 3 3 3 3 4 4 4 5 5 5 5 6 6 6 6 8 11 12 12 14 16 18 18 18 19 19 20 21 21 20 19 19 21 21 15 16 15 14 14 13 16 17
11 11 11 10 11 10 10 10 9 9 9 8 8 8 10 10 9 8 9 9 4 6 7 8 6 8 7 3 1 3 8 9 7 8 4 6 5 2 3 3 2 3 2 3 4 4 3 4 4 5 5 5 5 5 6 6 6 6 6 7 12 13 14 15 17 19 19 19 20 21 21 21 21 21 20 21 14 16 17 16 15 14 14 15 17
11 10 10 10 10 9 9 9 9 9 8 8 9 9 8 8 8 9 8 7 8 8 8 7 4 6 7 6 6 3 3 5 6 8 12 2 1 4 5 5 3 3 4 4 4 4 4 3 5 5 5 5 5 5 6 6 7 8 11 13 16 16 16 16 16 18 19 20 20 20 21 21 21 22 21 20 15 17 18 18 17 15 14 15 16
10 10 10 10 9 10 9 9 9 9 8 9 9 8 7 7 8 7 7 8 8 7 7 7 7 7 7 6 6 5 5 4 5 6 7 11 12 1 2 3 4 6 6 6 5 5 5 4 5 5 4 5 5 5 6 6 6 7 8 13 16 17 17 17 17 17 18 19 20 20 21 21 22 22 21 21 19 20 19 19 18 17 15 16 16
9 9 9 10 9 9 9 10 9 9 8 8 8 9 10 10 10 10 9 8 8 6 6 7 7 6 7 7 6 7 6 3 2 3 6 10 12 10 12 7 7 5 5 4 4 4 5 5 5 5 5 6 6 5 6 6 6 7 7 13 16 17 17 18 17 17 17 18 19 20 21 21 22 22 22 22 21 21 22 21 22 19 17 16 17
8 9 9 9 9 8 8 9 9 8 8 8 8 9 9 9 9 9 9 9 7 7 7 6 5 5 6 5 6 6 5 5 4 8 5 4 9 13 12 15 16 5 6 7 6 5 5 5 5 5 6 6 5 5 5 6 6 5 8 13 15 16 16 17 17 18 18 18 18 19 20 21 21 22 22 22 22 22 23 24 23 21 18 17 17
7 8 8 8 8 8 8 8 8 7 8 8 8 8 7 7 6 7 9 9 7 8 8 7 5 6 6 6 5 5 5 5 7 6 5 6 9 9 10 10 11 16 5 6 7 7 7 6 6 6 6 6 6 5 5 6 8 9 13 13 15 15 16 17 17 18 19 20 20 20 20 20 21 21 22 22 22 22 23 22 24 26 20 19 18
7 7 8 8 7 7 7 7 8 8 8 7 7 7 6 6 6 6 6 7 7 6 6 7 8 6 6 6 5 4 4 4 5 6 6 7 7 10 9 11 9 6 7 8 8 8 6 5 6 6 6 6 6 5 6 6 7 12 11 13 14 16 17 18 18 18 19 19 20 20 20 21 20 20 20 21 21 22 22 23 22 22 23 21 20
8 8 8 9 7 8 9 8 7 7 6 6 6 7 7 6 6 7 7 7 7 6 6 7 6 6 6 6 5 5 5 5 5 5 6 6 6 9 8 7 10 13 9 7 6 4 6 7 6 5 6 5 5 5 5 5 5 8 9 9 11 13 15 16 18 18 19 20 21 21 20 20 21 20 21 21 21 21 22 22 23 23 24 26 22
6 7 5 6 6 6 6 6 6 6 6 6 7 6 6 6 6 6 7 5 5 6 5 5 5 5 5 5 6 5 5 6 6 6 6 6 7 7 10 8 9 12 9 6 5 6 1 1 3 4 4 5 5 5 5 5 6 9 9 7 9 11 13 15 17 17 18 19 20 20 20 20 21 21 21 22 22 21 22 22 22 24 25 25 23
6 5 5 5 5 5 6 6 6 6 6 6 6 6 5 5 5 5 5 4 5 4 5 5 6 7 6 5 6 6 6 5 6 6 6 6 7 8 8 12 10 7 10 8 9 6 10 5 5 5 6 6 4 4 4 4 6 10 9 6 7 10 11 15 16 17 18 18 19 19 20 19 20 21 21 22 22 22 22 22 22 23 25 26 26
4 4 4 4 4 5 5 5 5 4 5 5 5 6 5 5 5 5 6 4 5 6 5 5 6 7 6 6 5 6 6 6 6 6 6 6 7 7 7 7 9 14 9 10 8 8 3 7 2 5 5 4 4 3 4 5 5 9 9 5 5 7 9 13 16 16 17 17 18 19 19 20 21 21 21 22 22 22 22 21 21 21 21 21 20
4 3 4 4 4 4 4 4 5 5 5 5 5 5 5 5 5 6 6 5 5 6 6 6 6 6 5 7 6 7 7 7 7 6 7 7 6 7 6 7 8 10 11 10 12 10 3 1 9 1 3 3 4 3 3 3 6 9 7 7 6 7 8 13 15 17 17 18 18 19 19 20 20 21 21 21 22 22 22 22 21 21 21 20 21
3 3 4 5 5 5 6 6 6 6 7 6 6 6 6 5 5 5 5 5 5 4 5 5 6 6 6 6 6 6 6 7 7 8 7 8 8 7 7 7 7 9 10 12 15 8 12 7 7 6 2 6 5 7 6 7 8 10 7 8 8 8 11 14 15 17 18 19 19 19 20 20 20 20 21 21 22 23 23 23 22 22 22 22 23
5 5 6 6 6 7 6 7 7 7 7 7 7 6 7 6 6 5 5 6 6 6 5 6 6 6 7 8 7 7 7 8 8 7 7 7 7 8 8 7 8 8 10 11 14 10 5 11 7 3 7 9 10 10 7 6 8 9 7 7 8 12 15 12 14 16 17 18 18 19 20 20 21 21 21 21 22 22 23 24 23 23 22 22 22
6 6 6 6 6 6 6 6 6 6 6 6 6 6 6 5 6 6 7 8 8 8 7 6 5 6 8 8 8 7 8 8 8 8 8 7 8 8 8 8 9 8 9 11 13 19 8 7 14 13 12 10 6 9 10 9 8 10 7 7 8 11 8 8 13 14 15 17 17 18 19 20 20 21 21 22 23 23 23 24 24 24 24 23 22
5 6 6 6 6 5 5 6 6 6 6 7 6 6 6 6 6 6 7 8 8 8 8 8 7 8 8 9 9 8 8 9 8 8 8 9 9 9 8 8 9 8 8 10 13 17 14 5 9 11 10 12 13 8 11 9 9 8 8 7 7 6 7 7 7 12 14 16 17 18 19 20 21 21 21 21 22 23 23 24 24 24 23 23 22
4 4 5 4 4 4 4 5 5 5 6 6 7 6 6 7 7 5 6 8 8 8 8 9 9 8 9 10 10 10 9 9 10 10 9 10 9 10 10 9 9 10 7 10 12 13 19 11 9 10 11 9 15 10 9 12 10 9 10 11 9 9 7 6 6 7 14 15 17 18 19 20 21 21 22 21 22 22 22 23 22 21 22 23 22
3 4 4 4 4 4 4 5 5 5 6 6 6 6 6 7 7 7 7 8 9 9 10 10 10 10 10 10 11 11 9 11 11 10 10 10 9 10 11 10 11 11 10 10 11 15 17 17 11 12 10 9 11 14 12 11 12 9 11 10 9 9 8 7 7 6 10 16 18 19 20 20 20 21 21 22 22 21 22 22 21 20 21 22 21
3 4 4 4 4 4 4 4 5 5 5 6 5 6 6 7 7 8 8 8 8 8 9 9 10 10 11 11 11 12 12 12 12 11 10 10 10 10 12 11 11 12 11 11 12 13 15 17 14 11 11 11 11 12 11 12 14 13 11 12 8 8 9 8 8 8 8 15 18 19 20 21 21 21 21 21 22 22 22 22 22 21 20 21 21
3 3 3 3 3 4 4 5 5 5 5 6 6 6 6 6 7 7 7 7 8 8 8 9 9 10 10 10 11 11 12 12 12 10 10 13 12 11 12 11 11 11 11 11 12 13 15 17 17 13 11 12 11 12 11 12 13 14 13 12 10 10 10 9 8 8 12 16 17 19 19 20 21 21 21 22 22 22 22 22 23 22 21 21 21
3 3 3 3 3 4 4 4 4 5 5 5 6 6 6 6 6 7 7 7 7 8 8 9 9 9 9 10 10 10 11 11 12 12 12 14 13 13 14 13 12 12 13 13 12 13 14 16 17 18 14 13 13 11 10 10 12 14 13 13 11 9 8 9 8 7 5 6 6 6 10 14 18 21 22 22 22 22 22 22 22 22 21 20 20
3 3 3 3 3 3 4 4 4 5 5 5 5 6 6 7 7 7 8 8 9 8 8 9 10 10 10 10 10 11 11 11 12 12 13 14 12 14 13 13 12 13 13 13 13 14 14 16 16 15 16 14 13 15 11 9 12 13 15 14 14 11 10 9 10 6 5 7 9 13 13 12 12 12 15 19 22 23 23 22 22 22 21 20 20
3 3 3 3 3 3 3 3 4 4 5 5 5 5 6 7 8 8 8 9 9 9 9 9 10 10 10 10 10 10 10 10 11 12 13 13 12 13 12 12 13 13 13 13 13 13 14 15 15 16 15 15 14 12 12 12 12 12 10 11 14 14 12 10 10 11 8 8 8 7 7 11 12 16 19 21 23 23 22 21 22 21 20 20 20
2 3 3 3 3 3 3 3 4 4 4 4 4 5 7 8 8 9 9 9 10 10 10 10 10 10 11 10 10 10 12 16 20 18 17 17 13 13 13 12 13 13 13 12 12 13 13 14 15 13 14 14 12 12 12 11 11 12 12 10 13 14 14 13 12 11 9 10 10 10 9 8 9 8 7 8 10 14 16 19 17 19 19 18 19
2 2 2 2 3 3 4 3 4 3 4 3 6 12 11 9 9 8 9 9 9 10 10 11 11 11 11 10 11 16 18 19 19 20 19 19 19 15 14 13 13 13 13 13 13 13 13 14 15 15 16 15 14 13 14 14 14 14 15 13 14 15 15 14 15 11 7 8 9 11 9 6 8 9 7 8 8 8 9 9 9 12 14 19 22
2 2 2 2 3 3 3 4 4 4 4 4 11 12 12 13 10 9 9 9 9 10 10 11 11 11 11 11 11 13 14 15 14 18 18 19 19 19 20 20 17 14 13 13 13 13 13 14 14 14 14 16 15 13 13 13 12 12 13 13 12 13 13 13 15 13 5 5 8 7 10 5 6 9 9 9 8 7 8 10 13 16 18 21 22
1 1 2 2 3 3 3 4 4 5 5 8 12 13 13 13 12 9 8 8 8 9 10 10 10 11 12 11 11 10 10 12 13 14 16 18 19 19 19 19 18 18 18 14 13 13 12 14 15 15 15 16 17 14 13 12 12 13 12 12 13 14 16 16 15 16 10 8 9 13 15 12 6 9 11 8 8 7 8 12 16 19 20 21 22
1 2 2 3 3 3 4 4 5 6 6 9 13 14 13 14 14 12 8 8 8 8 9 10 11 11 10 11 11 10 10 16 14 13 13 14 17 20 19 19 18 18 18 19 19 16 14 14 15 16 13 15 16 13 12 14 14 16 15 13 13 14 14 15 14 14 13 8 10 14 17 14 9 7 13 10 9 7 7 13 19 20 20 22 22
1 2 2 3 3 4 4 5 5 6 7 9 14 14 14 14 14 13 8 8 8 9 10 10 10 11 11 12 12 12 11 12 13 14 14 14 14 14 13 13 14 16 20 23 24 25 21 16 17 18 16 14 16 15 15 15 15 14 13 13 13 13 14 15 17 18 17 13 15 15 18 17 12 12 15 14 11 8 8 11 17 19 22 23 23
2 2 3 3 4 4 4 5 5 6 6 12 13 15 15 15 15 13 8 8 8 8 9 10 10 11 12 12 13 13 13 13 13 16 17 17 15 13 13 12 13 14 14 15 16 14 14 14 16 18 18 16 16 16 14 13 15 15 13 14 14 14 15 16 16 16 17 15 16 13 18 19 14 13 15 14 12 9 6 11 17 20 22 23 23
1 2 2 2 4 5 5 5 6 7 7 13 14 15 16 15 16 9 7 8 8 9 9 10 11 11 11 12 12 14 15 14 17 24 22 19 16 14 15 14 13 12 13 15 21 22 18 16 15 16 15 16 21 19 17 15 12 11 12 11 10 10 13 14 15 12 13 11 12 14 14 18 15 14 15 15 13 14 8 8 14 21 22 24 24
2 2 2 3 3 5 5 5 6 7 7 10 14 16 16 17 13 8 8 8 8 9 11 11 11 11 12 13 14 14 14 15 19 24 25 24 16 15 15 15 12 10 12 11 20 26 28 29 30 30 30 29 29 28 27 27 21 16 14 15 14 12 14 15 15 13 13 10 9 10 13 17 16 13 14 14 14 14 13 11 9 16 23 24 24
3 2 2 3 3 4 5 6 5 7 6 10 15 16 16 16 14 9 8 8 10 10 10 12 12 13 14 20 20 17 17 17 23 25 27 23 16 15 15 15 16 15 14 12 10 13 24 29 30 31 30 29 30 30 28 27 26 22 15 16 15 14 16 14 16 13 14 12 10 10 13 18 16 13 12 14 15 12 14 14 14 12 18 21 26
3 2 2 3 3 3 4 6 9 9 7 9 15 16 17 16 13 9 9 9 9 9 8 10 11 11 11 12 21 20 19 21 28 27 28 24 17 15 16 16 14 12 13 13 12 13 11 10 12 14 16 20 19 17 18 26 27 25 17 16 13 14 16 16 15 15 16 13 6 8 12 15 16 15 14 12 15 12 13 12 12 11 7 9 10
Wind_Direction
142 165 151 202 200 140 166 186 190 319 338 176 152 144 154 158 164 141 151 148 149 150 115 94 86 54 45 62 30 21 14 353 346 339 340 335 332 333 338 341 339 335 331 327 321 319 302 277 271 268 279 274 273 259 255 265 293 9 330 346 329 105 104 113 103 71 23 347 358 356 356 345 338 354 333 350 359 343 336 321 2 354 21 24 16
164 139 176 153 124 160 167 189 169 155 240 230 167 170 154 103 100 147 152 153 176 142 155 120 91 60 45 39 39 15 15 9 332 331 330 327 329 329 340 341 344 339 334 330 325 321 318 309 279 269 270 274 279 259 252 277 288 275 303 282 339 149 152 153 148 131 114 324 327 337 352 331 343 341 336 312 324 327 324 328 336 337 340 18 18
64 13 250 113 146 128 107 91 144 119 301 307 5 68 126 160 160 153 159 150 168 102 198 158 92 84 55 19 35 320 10 357 294 299 321 330 328 332 330 340 341 336 333 330 328 328 324 317 304 291 286 275 274 279 276 261 273 271 261 218 224 204 210 172 174 190 185 217 284 314 332 330 325 326 320 316 319 326 319 314 322 324 320 335 349
89 139 121 193 175 151 153 191 201 163 167 146 102 42 61 77 108 124 115 127 132 129 92 235 267 58 4 8 1 353 354 345 323 315 297 291 304 312 324 328 328 332 331 332 330 331 330 327 317 304 296 287 283 286 283 278 268 283 291 288 193 232 229 212 183 211 207 197 214 263 281 304 302 312 310 299 310 311 320 319 321 322 320 308 313
39 35 25 15 6 10 19 26 14 13 20 111 126 134 121 124 104 116 116 127 142 152 138 146 236 252 329 7 332 342 1 295 297 283 291 282 282 293 290 314 316 323 330 332 333 332 330 331 331 322 309 300 293 284 282 285 265 255 268 276 258 251 249 219 209 223 225 203 204 222 256 269 288 290 294 308 306 299 297 304 308 313 303 300 301
32 42 48 47 44 41 34 20 13 27 33 21 1 340 102 111 145 154 161 178 183 174 183 214 217 221 240 304 289 302 307 291 277 278 269 270 298 304 308 306 312 315 319 317 325 331 330 330 331 331 327 321 311 304 298 294 294 295 299 295 269 257 268 181 209 249 228 212 220 234 246 270 275 284 295 299 301 304 298 288 297 324 320 311 304
32 37 37 49 54 51 41 31 30 37 38 28 34 26 12 10 10 356 7 352 352 18 351 329 322 313 322 322 297 294 257 272 288 282 283 295 288 283 272 290 294 287 295 298 312 316 327 329 328 329 332 335 332 322 311 301 298 296 291 296 305 315 256 175 228 265 58 181 247 286 286 287 297 294 292 294 301 305 286 292 300 308 304 294 296
38 44 45 40 41 43 38 18 48 73 62 41 41 37 32 34 31 18 352 350 349 357 13 348 340 320 325 314 307 300 287 278 278 279 280 286 278 275 269 261 255 260 280 279 283 300 314 324 324 325 332 334 329 326 321 312 307 305 303 298 294 287 301 222 264 104 164 208 220 271 276 280 287 294 294 293 295 285 281 283 279 280 288 295 296
36 47 58 49 48 50 37 24 29 44 49 54 51 44 59 66 45 52 82 14 14 353 357 356 335 307 294 299 291 298 290 288 278 270 271 257 255 254 267 259 250 252 251 255 266 282 279 299 312 324 332 330 325 322 319 316 313 311 306 306 297 280 255 234 174 252 271 287 288 291 310 304 287 287 292 294 287 292 295 282 277 286 288 287 288
31 40 55 50 46 47 39 29 30 31 35 37 44 22 21 41 91 55 65 96 64 16 347 334 306 290 284 273 277 251 263 257 242 250 252 260 239 243 248 256 264 259 264 269 274 285 286 291 307 308 319 320 317 316 317 317 318 318 316 311 311 299 268 274 259 259 236 247 266 275 261 254 277 286 292 291 291 288 286 293 290 283 281 281 281
34 36 45 39 37 36 36 30 30 36 42 45 37 28 23 12 35 36 24 24 35 41 327 303 296 288 282 278 256 246 248 242 248 250 250 256 287 283 258 260 263 261 275 280 290 288 288 302 307 311 301 309 308 308 309 309 315 314 310 308 307 310 302 270 258 265 267 257 254 269 263 267 271 283 280 286 289 286 284 282 280 280 279 279 279
32 31 45 46 48 41 42 35 33 30 38 42 32 28 17 13 25 22 16 29 32 356 322 311 295 285 291 287 250 270 255 259 265 255 303 317 289 280 268 277 273 290 286 283 274 270 279 284 282 284 289 294 298 303 299 302 304 303 300 301 302 304 306 305 281 265 264 268 258 259 273 271 265 249 267 283 284 280 280 281 281 278 279 276 276
38 39 41 49 48 42 41 36 39 41 41 44 33 31 27 23 3 22 21 21 19 357 346 327 325 328 304 291 301 224 274 265 293 344 294 271 257 257 270 306 284 275 275 289 277 284 298 299 292 289 284 282 281 276 287 289 295 291 290 292 295 295 299 299 295 282 273 259 256 256 263 263 257 270 281 278 279 280 278 276 278 279 278 277 276
41 44 47 46 47 44 40 35 32 41 47 41 36 35 30 27 12 29 45 39 23 350 328 330 35 1 325 329 315 321 283 49 354 280 307 272 260 289 331 279 273 293 313 292 295 301 285 274 267 263 262 266 267 271 269 273 272 278 284 286 286 288 290 294 294 283 276 274 265 236 237 233 243 270 271 270 271 265 263 268 275 272 268 269 271
42 44 49 44 46 48 42 39 37 33 41 40 35 36 29 28 25 31 12 37 25 25 8 27 348 329 280 289 351 333 340 41 358 342 312 301 353 299 274 270 295 334 303 283 277 275 261 267 270 266 271 271 271 270 269 269 269 277 279 282 282 280 280 281 282 286 289 292 277 263 251 255 250 249 261 244 241 253 252 242 250 268 275 273 270
39 42 47 47 46 48 45 43 42 37 42 43 36 33 27 27 27 34 29 34 18 17 24 10 17 351 1 351 309 320 314 50 343 311 308 312 285 312 292 305 305 301 292 278 283 284 282 272 273 274 276 275 278 276 274 270 276 272 267 270 272 272 275 274 273 276 279 280 285 279 271 269 277 270 261 235 217 231 236 241 243 248 262 269 268
38 40 42 45 42 43 45 44 45 37 39 42 39 34 29 27 21 29 31 26 33 21 15 9 19 33 11 346 332 328 353 328 331 309 39 355 312 329 322 293 311 318 310 296 291 279 286 279 269 270 266 269 268 267 266 268 267 264 267 261 260 264 267 271 273 273 271 272 273 273 278 278 270 268 257 259 262 225 232 236 239 241 247 260 264
40 39 40 41 42 40 41 42 40 38 36 41 36 32 30 29 22 23 26 20 19 35 19 8 22 36 25 57 178 308 325 324 330 317 308 273 281 308 298 309 307 331 317 304 300 297 281 279 270 269 264 261 261 263 260 260 256 259 256 259 258 259 256 261 266 269 271 269 267 266 267 268 272 276 279 289 250 223 232 234 239 242 246 252 258
41 39 39 40 43 41 41 43 43 41 34 40 38 32 31 30 21 32 28 20 21 42 29 4 359 37 13 13 359 329 303 320 325 318 320 350 160 323 316 304 349 336 309 287 285 287 279 267 273 268 269 259 258 258 260 258 252 249 256 261 264 262 260 257 256 260 267 270 270 268 265 264 265 267 272 272 241 237 238 241 241 244 249 247 254
43 40 36 36 37 40 36 40 44 39 35 38 35 26 30 33 35 33 34 33 28 35 25 19 23 4 1 8 2 354 337 274 260 298 300 309 314 251 205 340 330 297 281 282 275 270 278 273 269 270 264 262 253 254 255 259 261 259 259 256 261 262 261 260 257 255 256 262 266 268 267 266 264 266 265 266 253 242 242 241 244 249 249 250 251
46 45 40 38 37 39 36 38 39 36 35 36 33 29 29 25 20 25 27 30 32 22 33 22 16 15 358 6 358 2 340 348 1 9 321 312 302 323 318 301 278 266 266 265 275 270 263 270 272 271 272 267 259 252 255 258 259 253 254 260 262 264 266 265 263 259 256 255 257 261 265 266 265 265 264 263 261 247 242 242 242 246 247 247 248
44 42 41 39 39 38 41 41 39 38 39 37 31 30 27 28 26 27 25 28 22 26 32 18 18 12 18 355 8 351 353 4 359 343 317 257 295 313 316 322 322 326 325 294 281 273 275 270 269 261 263 262 262 257 251 250 252 252 257 255 263 266 266 266 265 264 263 261 257 255 258 263 267 266 265 264 262 258 246 240 245 244 242 243 246
46 44 44 37 39 39 39 40 40 38 37 34 32 29 26 27 25 30 35 31 20 13 18 18 12 13 14 13 7 3 357 338 330 331 319 307 307 299 306 300 296 307 325 313 299 280 271 273 273 267 263 262 263 264 255 258 263 258 259 262 264 265 266 266 266 265 263 262 261 261 259 259 261 263 266 266 265 263 261 253 246 246 243 241 239
44 41 35 30 34 38 38 38 37 33 35 33 30 25 22 23 25 27 28 29 25 21 18 16 7 2 5 2 353 348 343 342 330 320 317 310 302 296 305 309 293 244 303 303 289 276 266 256 256 264 268 273 271 269 273 265 263 261 263 266 267 271 275 275 274 271 268 266 265 263 263 261 260 260 261 263 265 266 264 260 260 247 239 236 241
32 35 27 22 27 29 29 29 28 29 28 30 27 25 22 25 27 24 22 24 19 12 18 13 5 5 349 343 340 339 338 334 326 319 314 306 299 300 296 306 296 305 314 317 310 278 250 254 252 258 268 271 274 271 269 272 276 286 278 280 274 277 276 275 275 274 272 271 271 270 268 266 264 261 260 261 262 264 265 263 259 255 244 242 242
40 39 21 18 30 31 31 32 32 27 28 28 26 24 20 24 24 21 15 17 12 11 7 360 357 356 346 338 342 334 327 332 326 324 321 322 314 309 308 299 286 293 297 306 302 325 301 229 265 256 259 263 266 274 287 293 296 289 294 297 289 279 278 278 278 275 273 272 271 271 270 269 267 264 263 262 263 264 265 265 262 256 254 247 233
50 35 22 24 23 24 26 25 20 20 16 20 18 16 18 15 22 19 9 10 3 2 359 359 349 347 344 341 330 327 328 327 327 319 319 311 307 310 315 315 307 274 295 291 296 248 274 276 247 253 243 253 274 286 284 299 304 306 318 303 293 284 275 277 277 277 277 276 274 273 271 268 267 267 264 262 263 264 266 267 265 260 253 250 241
63 52 31 40 35 37 34 32 22 20 19 18 15 14 8 8 8 11 5 358 358 354 351 348 340 337 332 327 325 320 323 321 322 317 312 310 305 302 301 296 304 307 309 300 290 281 236 278 270 236 251 262 267 271 321 316 302 309 302 293 291 289 272 274 275 276 275 273 273 271 270 269 267 266 265 263 261 261 262 265 269 271 266 258 254
61 60 46 44 43 46 39 40 34 27 26 25 20 15 9 8 10 0 359 353 350 345 342 340 333 328 328 326 321 316 317 316 313 313 312 309 304 299 292 286 291 289 300 299 296 301 301 76 317 301 235 286 314 324 303 289 303 300 298 292 284 281 273 274 275 275 273 272 269 267 267 267 267 267 265 263 262 260 259 259 261 264 268 268 264
61 52 48 40 37 32 30 27 24 21 20 15 16 10 9 10 5 3 350 344 343 342 339 333 329 325 320 318 315 312 311 310 308 308 306 305 303 301 297 292 283 277 282 290 287 273 293 284 236 278 20 331 311 300 296 285 282 282 279 281 282 281 275 275 279 280 277 276 273 269 267 266 265 265 265 263 262 260 259 258 259 259 260 261 260
48 40 36 32 28 23 23 18 16 15 13 10 6 5 3 0 358 353 350 350 343 339 338 338 329 327 322 319 316 310 313 308 305 304 300 299 300 299 296 292 283 272 279 281 285 277 183 292 287 283 307 306 304 298 295 290 290 282 273 269 273 279 284 284 278 276 277 275 273 271 269 267 265 265 265 265 264 262 259 258 256 257 257 256 256
44 39 37 33 23 21 18 16 12 12 9 6 3 0 355 0 352 351 347 346 343 339 336 337 329 327 321 318 317 315 314 309 304 302 300 299 296 296 295 292 287 280 279 277 272 279 280 273 287 293 294 294 292 295 295 294 289 283 273 270 273 275 274 274 280 277 275 273 271 269 268 267 265 263 262 262 263 263 261 258 256 255 254 253 250
37 35 36 29 22 19 15 13 12 6 5 1 360 355 355 352 351 344 343 344 340 335 333 332 335 330 327 320 317 313 310 307 305 306 304 300 296 290 289 289 286 283 280 281 280 285 289 263 275 289 302 310 295 282 289 292 293 293 288 279 279 266 262 263 269 274 273 272 270 268 266 265 265 263 261 259 259 260 261 259 256 254 252 251 248
43 39 38 28 23 18 16 14 9 5 3 360 354 353 351 349 347 349 343 343 337 333 336 331 335 334 328 323 322 322 319 312 311 307 305 305 301 296 291 287 285 286 281 285 283 284 290 296 288 286 290 292 291 293 287 296 293 296 289 291 290 284 276 262 261 260 264 268 269 267 264 264 263 263 263 261 258 257 257 257 255 251 251 251 249
39 50 32 30 22 20 18 14 9 5 3 357 352 352 349 348 343 342 343 341 339 336 335 331 331 329 326 324 321 323 323 318 314 310 308 304 301 297 295 291 289 285 283 275 280 284 287 290 290 290 289 286 281 295 298 291 288 285 287 280 281 282 278 273 265 254 256 262 265 267 269 267 265 264 263 262 261 259 256 254 253 250 246 245 246
49 36 35 28 26 21 18 17 10 5 359 351 349 350 346 345 342 337 338 337 332 330 326 324 326 327 324 322 320 322 319 313 311 312 309 308 307 303 298 295 290 288 285 280 272 275 283 288 289 286 290 289 283 284 288 293 294 289 275 279 272 267 271 268 268 271 255 260 264 265 266 268 267 264 263 261 261 259 257 256 253 250 245 241 239
39 39 26 28 27 22 19 14 5 4 355 344 345 344 342 342 337 332 328 326 325 322 320 318 319 319 316 313 312 314 313 308 307 307 308 307 304 300 296 296 292 289 286 282 279 276 278 279 285 284 285 281 280 282 286 290 292 291 290 278 274 271 272 264 266 267 273 271 267 264 262 262 265 266 265 263 261 259 257 255 254 252 249 243 238
41 35 34 21 24 17 15 12 1 356 345 341 339 337 336 336 330 325 322 319 318 319 315 315 314 313 310 308 308 309 309 307 306 307 307 305 304 299 298 297 295 293 291 288 284 282 279 280 284 290 287 287 289 279 286 290 293 293 291 292 293 280 271 269 250 257 249 255 265 257 257 259 259 261 264 264 262 260 258 256 255 253 251 248 241
44 38 23 30 14 20 8 6 358 351 339 335 334 334 333 330 325 323 324 324 323 321 319 317 317 315 311 310 308 309 306 305 304 306 308 306 304 301 301 301 298 297 295 294 293 290 287 288 287 286 291 290 288 289 286 282 283 284 290 296 292 288 280 270 278 260 229 257 255 263 267 266 257 255 256 259 261 260 260 258 257 254 251 249 245
41 31 15 13 10 9 5 357 349 339 330 328 329 325 321 324 327 325 324 322 320 317 315 313 314 310 309 307 305 304 304 304 304 304 304 303 303 299 298 297 296 294 293 293 293 292 291 288 284 287 285 288 289 282 285 283 277 273 270 282 288 292 290 291 288 292 281 261 266 263 256 264 264 258 256 256 257 259 259 259 257 255 254 252 249
28 21 7 360 2 1 357 351 342 332 324 323 327 319 324 327 325 320 319 316 314 313 312 310 309 306 305 304 302 301 301 302 300 300 299 299 300 299 300 302 302 301 298 295 294 294 291 289 289 290 292 293 294 302 302 296 290 288 292 291 289 288 291 291 285 275 269 276 269 261 254 255 267 258 248 254 247 251 257 255 258 256 254 253 252
14 6 0 355 2 351 345 338 337 323 313 313 305 315 319 318 318 314 311 309 310 309 308 306 305 305 305 303 301 300 301 302 302 301 300 299 298 297 300 303 303 301 299 298 296 296 295 293 291 294 293 291 296 298 298 300 303 302 296 289 283 286 291 291 289 277 274 261 271 272 259 231 253 265 259 255 253 241 248 251 245 248 248 246 246
357 359 345 352 352 339 340 334 327 321 304 301 309 316 316 315 313 310 307 306 305 304 302 302 302 306 305 304 301 302 300 300 299 298 300 300 300 299 298 298 297 298 300 298 295 296 295 291 292 293 294 296 299 304 306 311 312 307 308 310 306 302 297 297 293 296 270 272 268 269 275 235 219 256 260 254 255 244 237 242 241 246 247 248 247
342 334 339 351 330 336 327 329 319 310 303 304 313 313 312 312 312 309 306 302 301 299 302 304 304 305 303 301 300 298 297 296 297 298 299 298 298 299 299 299 298 298 297 298 301 299 296 293 290 288 292 291 293 295 298 300 298 296 296 296 297 292 284 278 278 280 288 298 294 289 283 282 236 237 254 246 252 244 235 243 240 242 246 247 247
302 330 345 335 327 329 325 323 315 307 296 305 309 310 310 312 311 310 303 299 297 301 304 302 299 298 298 299 300 295 295 296 296 296 295 295 295 296 297 297 297 294 292 292 291 290 293 291 292 292 293 297 294 295 299 297 298 294 296 291 290 289 292 294 293 295 296 314 299 292 287 283 279 247 261 248 239 240 243 243 245 243 243 246 246
328 325 326 325 326 324 322 316 307 301 297 301 308 310 313 311 310 309 301 302 300 298 296 296 297 297 296 297 298 296 295 294 293 295 296 293 292 291 287 282 279 275 275 276 279 282 280 280 283 283 283 279 282 288 288 288 281 275 277 276 273 275 275 275 280 279 282 283 283 291 286 281 279 277 268 272 263 236 234 241 245 244 242 242 244
326 322 323 319 311 311 308 308 303 297 291 306 311 312 312 312 311 315 309 302 293 289 293 295 295 294 293 291 291 291 292 292 288 289 291 290 288 279 271 264 260 261 259 267 267 260 256 257 268 272 273 270 272 279 280 277 269 268 266 268 269 269 272 273 270 270 274 274 273 268 271 278 270 272 269 270 272 261 222 243 241 245 243 242 242
275 288 296 300 303 307 305 302 300 296 296 312 313 313 313 314 316 316 304 295 290 289 291 294 295 294 291 290 288 285 284 279 276 287 290 290 287 279 273 267 260 254 255 249 257 262 264 264 264 264 265 270 275 279 280 279 274 277 277 278 282 289 291 288 285 289 283 284 261 249 259 266 264 260 267 269 270 270 251 229 231 240 242 242 241
294 295 288 292 296 294 296 293 295 294 294 308 312 313 315 315 317 304 300 296 290 291 293 294 296 292 288 282 277 279 280 280 278 286 293 292 285 276 272 270 266 258 261 249 259 267 271 272 274 276 277 280 283 285 285 285 285 285 288 289 287 288 284 285 285 286 283 281 282 272 260 265 269 270 272 270 270 270 267 254 228 230 239 242 241
291 278 292 292 277 276 283 287 287 294 293 306 311 313 314 312 311 306 299 293 290 285 278 284 284 281 268 264 274 277 278 278 281 286 289 292 287 281 279 278 277 272 268 262 253 258 261 268 270 273 275 277 279 283 285 286 285 285 284 280 280 280 277 276 281 284 285 281 282 282 279 269 277 273 275 274 272 254 256 257 255 244 236 241 241
269 284 292 288 279 274 266 277 296 300 296 301 307 308 310 310 310 302 297 289 280 281 272 275 277 270 264 260 275 279 286 289 292 294 294 294 288 282 280 275 272 261 266 261 259 265 260 257 257 257 262 266 269 267 266 268 274 276 273 272 275 272 273 274 277 284 285 278 276 270 264 271 271 269 266 274 272 265 254 246 250 247 217 222 233